Location: Newark
(49.3500°N, 0.2500°E)
Time: 00:06:10
(UTC+00:00)

Envisat - Visible Passes

Search period start: 19 September 2019 00:00
Search period end: 29 September 2019 00:00
Orbit: 764 x 766 km, 98.1° (Epoch: 18 September)

Date Brightness Start Highest point End Pass type
(mag) Time Alt. Az. Time Alt. Az. Time Alt. Az.
20 Sep 5.9 19:27:28 10° SW 19:30:49 17° W 19:34:11 10° NW visible
21 Sep 4.9 18:49:04 10° SSW 18:53:41 35° W 18:58:20 10° NNW visible
22 Sep 6.5 19:56:13 10° W 19:56:43 10° W 19:57:14 10° WNW visible
23 Sep 5.7 19:15:35 10° SW 19:19:26 21° W 19:23:18 10° NW visible
24 Sep 4.4 18:37:33 10° S 18:42:21 42° W 18:47:12 10° NNW visible
25 Sep 6.1 19:43:00 10° WSW 19:45:17 13° W 19:47:35 10° WNW visible
26 Sep 5.3 19:03:49 10° SSW 19:08:04 26° W 19:12:19 10° NW visible
27 Sep 4.0 18:26:06 10° S 18:31:03 52° W 18:36:02 10° NNW visible
28 Sep 5.9 19:30:46 10° SW 19:33:52 16° W 19:36:59 10° NW visible
